星链-2097 (STARLINK-2097 )

导读 | 豆包AI

STARLINK-2097是美国SpaceX公司星链星座中的一颗低轨通信卫星,于2021年1月20日发射入轨,属于星链第一代组网卫星。它运行在近地轨道,依托相控阵天线和氪离子推进技术,为全球提供高速低延迟的卫星互联网服务,助力填补偏远地区网络覆盖缺口。作为星链大规模组网的组成单元,它是SpaceX构建全球低轨卫星互联网星座的重要一环。

基本信息
目录编号:
47377
目录名称:
STARLINK-2097
国际标识:
2021-005AE
轨道中心:
EARTH
卫星名称:
星链-2097
卫星全名:
星链-2097 (STARLINK-2097 )
卫星状态:
在轨 (已飞行1879 天)
发射日期:
2021-01-20 UTC
国别 :
美国 (US)
星等 :
--
轨道信息
数据来源 国际轨道数据 AOE轨道数据
星历时间 2026-03-13T16:33:07+0800
1天前
查看轨道信息
2026-03-13T23:00:00+0800
20小时前
查看轨道信息
半长轴 6925.388km 6925.398km
偏心率 0.0001245 0.0001091
轨道倾角 53.056° 53.055°
近地点辐角 99.488° 81.887°
升交点赤经 45.159° 43.956°
平近点角 260.625° 296.031°
近地点 546.388km 546.505km
远地点 548.114km 548.017km
周期 95.593分钟 95.593分钟
每日圈数 15.063872 15.063839
详细信息
固有亮度:
5
最大亮度:
2.5
卫星平台:
Starlink V1.0
覆盖范围:
全球
运营商:
太空探索技术公司
运营商所在国:
美国
制造商(研发单位):
太空探索技术公司
制造商所在国:
美国
使用方式:
暂无
卫星简介
星链(Starlink)计划是由太空探索技术公司(SpaceX)提出的一个巨型低轨卫星互联网星座项目,计划在2019年至2024年间在太空搭建由约1.2万颗卫星组成的“星链”网络,其中1584颗将部署在地球上空550千米处的近地轨道,并从2020年开始工作。该卫星仍在工作。
2D轨道图
3D轨道图
轨道高度分析图
轨道倾角分析图
轨道综合分析图
查看轨道综合分析图